AA1FF Weather Reports


Display with metric or nautical units.
time (UTC)temp
F
wind
direction
speed
MPH
gust
MPH
rain 1hr
in
rain 24hr
in
rain mn
in
humidity
%
barometer
mb
20260506192348 58 157 3.0 6.0 0.01 0.00 0.09 95 1008.0
20260506191357 58 206 2.0 4.0 0.07 0.00 0.08 94 1008.0
20260506190845 58 202 2.0 3.0 0.06 0.00 0.07 94 1008.0
20260506190347 58 166 1.0 2.0 0.04 0.00 0.06 94 1008.0
20260506185844 59 85 3.0 7.0 0.10 0.00 0.06 93 1008.0
20260506185347 59 115 1.0 2.0 0.06 0.00 0.05 92 1008.0
20260506184845 59 127 2.0 4.0 0.05 0.00 0.05 92 1008.0
20260506184347 59 119 1.0 3.0 0.04 0.00 0.04 91 1008.0
20260506183846 60 126 3.0 5.0 0.04 0.00 0.04 90 1008.0
20260506183346 60 176 1.0 3.0 0.02 0.00 0.03 89 1008.0
20260506182847 60 98 2.0 5.0 0.04 0.00 0.03 88 1009.0
20260506182347 61 93 2.0 6.0 0.05 0.00 0.03 87 1009.0
20260506181845 61 173 1.0 2.0 0.08 0.00 0.02 85 1009.0
20260506181345 62 298 2.0 3.0 0.03 0.00 0.02 85 1009.0
20260506180846 62 172 3.0 5.0 0.06 0.00 0.01 81 1009.0
20260506180343 63 155 2.0 3.0 0.06 0.00 0.01 79 1009.0
20260506175846 64 144 3.0 6.0 0.01 0.00 0.00 76 1009.0
20260506175345 64 161 3.0 5.0 0.05 0.00 0.00 75 1009.0
20260506174845 64 121 2.0 4.0 0.00 0.00 0.00 73 1009.0
20260506174346 65 212 4.0 8.0 0.00 0.00 0.00 72 1009.0
20260506173846 65 108 2.0 4.0 0.00 0.00 0.00 73 1009.0
20260506173345 65 121 5.0 8.0 0.00 0.00 0.00 71 1009.0
20260506172846 66 91 5.0 9.0 0.00 0.00 0.00 70 1009.0
20260506172345 66 163 3.0 5.0 0.00 0.00 0.00 69 1009.0
20260506171846 66 179 2.0 5.0 0.00 0.00 0.00 68 1009.0
20260506171345 67 202 3.0 6.0 0.00 0.00 0.00 67 1009.0
20260506170846 67 111 4.0 9.0 0.00 0.00 0.00 66 1009.0
20260506170346 68 69 3.0 6.0 0.00 0.00 0.00 66 1009.0
20260506165849 68 129 4.0 6.0 0.00 0.00 0.00 63 1009.0
20260506165345 68 229 4.0 6.0 0.00 0.00 0.00 65 1009.0
20260506164845 68 190 4.0 7.0 0.00 0.00 0.00 65 1009.0
20260506164345 68 133 2.0 3.0 0.00 0.00 0.00 65 1009.0
20260506163849 68 150 3.0 4.0 0.00 0.00 0.00 64 1009.0
20260506163345 69 80 5.0 9.0 0.00 0.00 0.00 63 1009.0
20260506162846 69 73 5.0 9.0 0.00 0.00 0.00 62 1009.0
20260506162345 68 56 3.0 8.0 0.00 0.00 0.00 62 1009.0
20260506161845 68 199 6.0 10.0 0.00 0.00 0.00 63 1009.0
20260506161346 68 116 6.0 11.0 0.00 0.00 0.00 62 1010.0
20260506160844 69 93 4.0 7.0 0.00 0.00 0.00 63 1009.0
20260506160346 69 212 4.0 6.0 0.00 0.00 0.00 61 1010.0
20260506155845 69 188 3.0 5.0 0.00 0.00 0.00 61 1009.0
20260506155344 69 177 3.0 11.0 0.00 0.00 0.00 62 1010.0
20260506154845 69 189 5.0 8.0 0.00 0.00 0.00 62 1010.0
20260506154346 69 88 2.0 4.0 0.00 0.00 0.00 63 1010.0
20260506153843 69 86 4.0 7.0 0.00 0.00 0.00 62 1010.0
20260506153345 69 73 2.0 4.0 0.00 0.00 0.00 60 1010.0